TimeEST,TemperatureF,Dew PointF,Humidity,Sea Level PressureIn,VisibilityMPH,Wind Direction,Wind SpeedMPH,Gust SpeedMPH,PrecipitationIn,Events,Conditions,WindDirDegrees,DateUTC
12:15 AM,37.4,28.4,70,30.26,10.0,SE,3.5,-,0.00,,Clear,140,2013-02-19 05:15:00
12:35 AM,37.4,28.4,70,30.26,10.0,Calm,Calm,-,0.00,,Clear,0,2013-02-19 05:35:00
12:55 AM,37.4,28.4,70,30.26,10.0,Calm,Calm,-,0.00,,Clear,0,2013-02-19 05:55:00
1:15 AM,37.4,28.4,70,30.26,10.0,Calm,Calm,-,0.00,,Clear,0,2013-02-19 06:15:00
1:35 AM,37.4,30.2,75,30.25,10.0,Calm,Calm,-,0.00,,Clear,0,2013-02-19 06:35:00
1:55 AM,33.8,30.2,87,30.24,10.0,Calm,Calm,-,0.00,,Clear,0,2013-02-19 06:55:00
2:15 AM,33.8,30.2,87,30.22,10.0,Calm,Calm,-,0.00,,Clear,0,2013-02-19 07:15:00
2:35 AM,33.8,28.4,81,30.21,10.0,ESE,3.5,-,0.00,,Clear,120,2013-02-19 07:35:00
2:55 AM,33.8,28.4,81,30.20,10.0,Calm,Calm,-,0.00,,Clear,0,2013-02-19 07:55:00
3:15 AM,32.0,30.2,93,30.19,10.0,East,3.5,-,0.00,,Clear,90,2013-02-19 08:15:00
3:35 AM,33.8,30.2,87,30.19,10.0,Calm,Calm,-,0.00,,Clear,0,2013-02-19 08:35:00
3:55 AM,32.0,30.2,93,30.17,10.0,Calm,Calm,-,0.00,,Clear,0,2013-02-19 08:55:00
4:15 AM,33.8,30.2,87,30.16,10.0,Calm,Calm,-,0.00,,Clear,0,2013-02-19 09:15:00
4:35 AM,33.8,30.2,87,30.15,10.0,Calm,Calm,-,0.00,,Clear,0,2013-02-19 09:35:00
4:55 AM,33.8,30.2,87,30.14,10.0,Calm,Calm,-,0.00,,Clear,0,2013-02-19 09:55:00
5:15 AM,35.6,30.2,81,30.13,10.0,SE,4.6,-,0.00,,Clear,130,2013-02-19 10:15:00
5:35 AM,35.6,32.0,87,30.13,10.0,Calm,Calm,-,0.00,,Partly Cloudy,0,2013-02-19 10:35:00
5:55 AM,33.8,32.0,93,30.13,10.0,Calm,Calm,-,0.00,,Mostly Cloudy,0,2013-02-19 10:55:00
6:15 AM,35.6,32.0,87,30.13,10.0,Calm,Calm,-,0.00,,Overcast,0,2013-02-19 11:15:00
6:35 AM,37.4,32.0,81,30.14,10.0,Calm,Calm,-,0.00,,Overcast,0,2013-02-19 11:35:00
6:55 AM,35.6,32.0,87,30.13,10.0,Calm,Calm,-,0.00,,Overcast,0,2013-02-19 11:55:00
7:15 AM,37.4,33.8,87,30.14,10.0,Calm,Calm,-,0.00,,Overcast,0,2013-02-19 12:15:00
7:35 AM,39.2,33.8,81,30.13,10.0,Calm,Calm,-,0.00,,Overcast,0,2013-02-19 12:35:00
7:55 AM,39.2,33.8,81,30.13,10.0,Calm,Calm,-,0.00,,Overcast,0,2013-02-19 12:55:00
8:15 AM,39.2,35.6,87,30.12,10.0,Calm,Calm,-,0.00,,Mostly Cloudy,0,2013-02-19 13:15:00
8:35 AM,39.2,35.6,87,30.12,10.0,Calm,Calm,-,0.00,,Mostly Cloudy,0,2013-02-19 13:35:00
8:55 AM,41.0,35.6,81,30.11,6.0,Calm,Calm,-,0.00,Rain,Light Rain,0,2013-02-19 13:55:00
9:15 AM,41.0,37.4,87,30.12,5.0,South,3.5,-,0.01,Rain,Light Rain,190,2013-02-19 14:15:00
9:35 AM,41.0,37.4,87,30.12,2.5,Calm,Calm,-,0.04,Rain,Rain,0,2013-02-19 14:35:00
9:55 AM,41.0,39.2,93,30.11,2.5,Calm,Calm,-,0.09,Rain,Rain,0,2013-02-19 14:55:00
10:15 AM,41.0,39.2,93,30.11,2.0,SSE,3.5,-,0.03,Rain,Light Rain,160,2013-02-19 15:15:00
10:35 AM,41.0,39.2,93,30.10,3.0,Calm,Calm,-,0.06,,Mostly Cloudy,0,2013-02-19 15:35:00
10:55 AM,42.8,42.8,100,30.09,3.0,South,4.6,-,0.07,Rain,Light Rain,180,2013-02-19 15:55:00
11:15 AM,44.6,44.6,100,30.08,1.8,SSE,4.6,-,0.00,,Light Drizzle,150,2013-02-19 16:15:00
11:35 AM,46.4,44.6,93,30.06,2.0,South,5.8,-,0.01,,Light Drizzle,180,2013-02-19 16:35:00
11:55 AM,46.4,46.4,100,30.05,4.0,SSW,8.1,-,0.01,,Light Drizzle,200,2013-02-19 16:55:00
12:15 PM,48.2,48.2,100,30.03,1.8,South,6.9,-,0.00,,Light Drizzle,190,2013-02-19 17:15:00
12:35 PM,48.2,48.2,100,30.02,0.8,SSW,5.8,-,0.01,Rain,Light Rain,210,2013-02-19 17:35:00
1:15 PM,51.8,51.8,100,30.01,1.0,SSW,6.9,-,0.01,,Light Drizzle,210,2013-02-19 18:15:00
1:35 PM,51.8,51.8,100,29.99,1.5,SW,10.4,-,0.01,,Light Drizzle,220,2013-02-19 18:35:00
1:55 PM,51.8,51.8,100,29.99,1.2,SW,8.1,-,0.01,,Light Drizzle,230,2013-02-19 18:55:00
2:15 PM,51.8,50.0,94,29.99,1.0,WSW,9.2,-,0.00,,Light Drizzle,240,2013-02-19 19:15:00
2:35 PM,51.8,50.0,94,29.98,1.0,SW,10.4,18.4,0.00,,Overcast,230,2013-02-19 19:35:00
2:55 PM,51.8,50.0,94,29.97,7.0,SW,10.4,17.3,0.00,,Overcast,230,2013-02-19 19:55:00
3:15 PM,51.8,50.0,94,29.97,10.0,WSW,12.7,-,0.00,,Overcast,240,2013-02-19 20:15:00
3:35 PM,51.8,50.0,94,29.96,10.0,WSW,13.8,18.4,0.00,,Overcast,240,2013-02-19 20:35:00
3:55 PM,51.8,48.2,88,29.96,10.0,WSW,8.1,-,0.00,,Overcast,240,2013-02-19 20:55:00
4:15 PM,51.8,48.2,88,29.96,10.0,SW,9.2,-,0.00,,Overcast,230,2013-02-19 21:15:00
4:35 PM,51.8,46.4,82,29.96,10.0,WSW,10.4,19.6,0.00,,Overcast,240,2013-02-19 21:35:00
4:55 PM,51.8,46.4,82,29.95,10.0,SW,9.2,-,0.00,,Mostly Cloudy,230,2013-02-19 21:55:00
5:15 PM,51.8,46.4,82,29.96,10.0,SW,8.1,-,0.00,,Mostly Cloudy,230,2013-02-19 22:15:00
5:35 PM,51.8,46.4,82,29.96,10.0,WSW,17.3,21.9,0.00,,Mostly Cloudy,240,2013-02-19 22:35:00
5:55 PM,50.0,44.6,82,29.96,10.0,WSW,11.5,18.4,0.00,,Partly Cloudy,240,2013-02-19 22:55:00
6:15 PM,48.2,44.6,87,29.97,10.0,SW,10.4,16.1,0.00,,Clear,230,2013-02-19 23:15:00
6:35 PM,48.2,44.6,87,29.97,10.0,SW,8.1,-,0.00,,Clear,230,2013-02-19 23:35:00
7:35 PM,46.4,44.6,93,30.00,10.0,WSW,5.8,-,0.00,,Clear,240,2013-02-20 00:35:00
7:55 PM,46.4,44.6,93,30.00,10.0,SW,6.9,-,0.00,,Clear,220,2013-02-20 00:55:00
8:15 PM,46.4,44.6,93,30.00,10.0,SW,3.5,-,0.00,,Clear,230,2013-02-20 01:15:00
8:55 PM,46.4,44.6,93,30.00,10.0,SW,5.8,-,0.00,,Clear,220,2013-02-20 01:55:00
9:35 PM,44.6,42.8,93,30.01,10.0,WSW,3.5,-,0.00,,Clear,250,2013-02-20 02:35:00
9:55 PM,42.8,41.0,93,30.02,10.0,West,3.5,-,0.00,,Clear,260,2013-02-20 02:55:00
10:15 PM,42.8,41.0,93,30.02,10.0,WSW,4.6,-,0.00,,Clear,250,2013-02-20 03:15:00
10:35 PM,42.8,39.2,87,30.02,10.0,WSW,5.8,-,0.00,,Clear,240,2013-02-20 03:35:00
10:55 PM,42.8,39.2,87,30.03,10.0,WSW,5.8,-,0.00,,Clear,240,2013-02-20 03:55:00
11:15 PM,42.8,37.4,81,30.03,10.0,WSW,6.9,-,0.00,,Clear,250,2013-02-20 04:15:00
11:35 PM,42.8,35.6,76,30.03,10.0,WSW,6.9,-,0.00,,Clear,250,2013-02-20 04:35:00
11:55 PM,42.8,35.6,76,30.04,10.0,WSW,5.8,-,0.00,,Clear,250,2013-02-20 04:55:00